Welcome to the New NWS' Forecast!
Most changes are behind the scenes, but click here for differences you might notice.

Regional Weather Roundup (RWR)

Issued by Gray - Portland, ME (GYX)

                            
769 
ASUS41 KGYX 220910
RWRGYX
WEATHER ROUNDUP FOR MAINE AND NEW HAMPSHIRE
NATIONAL WEATHER SERVICE GRAY ME
500 AM EDT SAT SEP 22 2018

MEZ002-005-006-010-012-015-018-020-021-024-026-027-029-221000-
MAINE
  
CITY           SKY/WX    TMP DP  RH WIND       PRES   REMARKS
PORTLAND       MOCLDY    69  65  86 SW8       29.76S                  
SANFORD        FAIR      69  65  86 SW10      29.79R                  
BAR HARBOR     CLOUDY    64  62  93 SW15      29.73S                  
WISCASSET      FAIR      66  63  90 SW9G18    29.75R                  
ROCKLAND       CLOUDY    66  62  87 SW17G24   29.73S                  
FRYEBURG       FAIR      70  62  76 W8G17     29.77R                  
LEWISTONAUBURN FAIR      67  65  93 S9        29.74R                  
AUGUSTA        CLOUDY    64  62  93 SW6       29.74R                  
WATERVILLE     MOCLDY    63  62  97 SW5       29.72R                  
BANGOR         CLOUDY    66  63  90 SW5       29.71R                  
GREENVILLE       N/A     59  52  77 W9G21     29.69R                  
MILLINOCKET    CLOUDY    62  60  93 VRB7      29.66R                  
HOULTON        CLOUDY    62  61  96 SW14G22   29.60R                  
PRESQUE ISLE   FAIR      62  58  86 SW14      29.56R                  
FRENCHVILLE    CLOUDY    62  55  77 W17G25    29.51R                  
CARIBOU        HVY RAIN  62  57  83 W15G31    29.54R                  
$$

NHZ002-005-008-009-011-012-014-221000-
NEW HAMPSHIRE
  
CITY           SKY/WX    TMP DP  RH WIND       PRES   REMARKS
PORTSMOUTH     MOCLDY    70  65  85 SW12G18   29.79R                  
ROCHESTER      MOCLDY    69  66  90 VRB3      29.79R                  
NASHUA         FAIR      70  67  90 VRB6      29.84S                  
MANCHESTER     FAIR      71  66  84 SW7       29.81R                  
CONCORD        FAIR      70  65  84 SW7       29.81R                  
LACONIA        MOCLDY    69  65  86 W8        29.81R                  
PLYMOUTH       FAIR      65  59  80 W6        29.82R                  
BERLIN         MOCLDY    63  52  67 NW13G26   29.84R                  
WHITEFIELD     CLOUDY    62  54  74 VRB5      29.86R                  
JAFFREY        MOCLDY    67  66  97 SW3       29.88R                  
KEENE          FAIR     N/A N/A N/A SW6       29.88R                  
LEBANON        FAIR      68  55  63 SW9       29.85R                  
MT WASHINGTON  NOT AVBL                                               
$$

VTZ005-007-008-221000-
VERMONT
  
CITY           SKY/WX    TMP DP  RH WIND       PRES   REMARKS
ST JOHNSBURY     N/A     61  51  70 MISG      29.86R                  
MONTPELIER     CLOUDY    62  51  67 W10       29.92R                  
BURLINGTON     CLOUDY    63  43  48 NW25G36   29.94R                  
$$

MAZ007-012-024-CTZ003-RIZ002-NYZ038-NYZ072-221000-
SOUTHERN NEW ENGLAND AND NY
  
CITY           SKY/WX    TMP DP  RH WIND       PRES   REMARKS
BOSTON         MOCLDY    70  66  87 SW16      29.84R                  
WORCESTER      CLOUDY    66  66 100 W13G22    29.89S                  
NANTUCKET      FAIR      68  66  93 SW20G28   29.93F                  
PROVIDENCE     LGT RAIN  70  69  97 SW13      29.90S                  
HARTFORD       FAIR      67  67 100 S6        29.89R                  
ALBANY         MOCLDY    66  54  65 NW20G28   29.98R                  
NEW YORK CITY  MOCLDY    76  68  76 W10       29.94S                  
$$

ANZ081-ANZ082-ANZ150-NHZ014-MEZ023>029-221000-
COASTAL MARINE OBSERVATIONS
  
STATION/POSITION TIME  TEMP    WIND        PRES    WAVE
                       AIR SEA DIR/SP/G            HT/PER
                 (UTC) (F)     (DEG/KT/KT) (MB)    (FT/S)
MOUNT DESERT ROC 0900   63     200/ 33/ 36 1006.9F
MATINICUS ROCK   0800   63     210/ 31/ 34 1007.1F
ISLE OF SHOALS   0800   69     240/ 25/ 27 1008.2R
JEFFREYS LEDGE   0836      63                N/A     7/10
$$

.............KEY..............
   WCI - WIND CHILL
   TC  - TEMPERATURE IN CELSIUS
   VSB - VISIBILITY IN MILES
   HX  - HEAT INDEX
   FAIR- INDICATES FEW OR NO CLOUDS BELOW 12,000 FT, WITH NO 
         SIGNIFICANT WEATHER AND/OR OBSTRUCTIONS TO VISIBILITY.